Location: Oakley
(37.9974°N, 121.7125°W)
Time: 02:47:02
(UTC+00:00)

Cosmos 836 Rocket - Pass Details

Date: 13 February 2026
Orbit: 753 x 773 km, 74.1° (Epoch: 13 March)

Event Time Altitude Azimuth Distance (km) Brightness Sun altitude
Exits shadow 13:03:47 22° 340° (NNW) 1,620 6.0 -23.2°
Maximum altitude 13:07:12 84° 254° (WSW) 775 4.3 -22.6°
Drops below altitude 10° 13:12:24 10° 166° (SSE) 2,288 7.1 -21.5°
Sets 13:14:45 0° 165° (SSE) 3,207 7.9 -21.1°
